{"data":{"norad_id":68029,"intl_designator":"2026-040Q","name":"STARLINK-36944","alt_names":[],"object_type":"PAYLOAD","status":"ACTIVE","operator":null,"country":"US","launch_date":"2026-03-01","launch_site_code":"AFWTR","launch_vehicle":null,"mission":null,"orbit_class":"UNKNOWN","rcs_meters":null,"size_class":null,"mass_kg":null,"dimensions":null,"purposes":["comms"],"wikipedia_slug":null,"has_3d_model":false,"image_url":null,"decayed_at":null,"tle_current":{"epoch":"2026-05-24T20:09:29.674656Z","epoch_age_seconds":85558,"freshness":"FRESH","line1":"1 68029U 26040Q   26144.83992679  .00020465  00000+0  63442-3 0  9995","line2":"2 68029  97.2845  93.8680 0001788  95.4177 264.7270 15.33449628 13134","mean_motion":15.33449628,"eccentricity":0.0001788,"inclination_deg":97.2845,"raan_deg":93.868,"arg_perigee_deg":95.4177,"mean_anomaly_deg":264.727,"bstar":0.00063442,"rev_number":1313,"period_min":93.905921244907,"perigee_km":464.30575728765,"apogee_km":466.75305239402,"semimajor_km":6843.6664048408,"source":"CELESTRAK","updated_at":"2026-05-25T13:38:21.807178Z"}}}